Pendleton, OR

4:29 PM PST on November 18, 2017 (GMT -0800)
Eastern Oreg Regional At Pendleton

Weather History for KPDT - September, 2013

Change the Weather History Date:

Sunday, September 29, 2013

  Actual Average Record
Temperature  
Mean Temperature 56 °F 58 °F  
Max Temperature 63 °F 72 °F 93 °F (1932)
Min Temperature 49 °F 45 °F 28 °F (1919)
Degree Days  
Heating Degree Days 9 7  
Month to date heating degree days 97 105  
Since 1 July heating degree days 97 127  
Cooling Degree Days 0 1  
Month to date cooling degree days 121 64  
Year to date cooling degree days 831 634  
Growing Degree Days 5 (Base 50)    
Moisture  
Dew Point 43 °F    
Average Humidity 70    
Maximum Humidity 93    
Minimum Humidity 46    
Precipitation  
Precipitation 0.09 in 0.03 in 0.40 in (1930)
Month to date precipitation 2.06 0.55  
Year to date precipitation 7.35 8.64  
Snow  
Snow 0.00 in 0.00 in 0.00 in (2002)
Month to date snowfall 0.0 0.0  
Year to date snowfall 0.2 7.7  
Since 1 July snowfall T 0.0  
Snow Depth 0.00 in    
Sea Level Pressure  
Sea Level Pressure 29.61 in    
Wind  
Wind Speed 16 mph (SSW)    
Max Wind Speed 38 mph    
Max Gust Speed 50 mph    
Visibility 10 miles    
Events Rain    
T = Trace of Precipitation, MM = Missing Value Source: NWS Daily Summary

Daily Weather History Graph

Daily Weather History Graph

Search for Another Location

Airport or City:

Trip Planner

Search our weather history database for the weather conditions in past years. The results will help you decide how hot, cold, wet, or windy it might be!

Date:

Astronomy

Sep. 29, 2013 Rise Set
Actual Time 6:51 AM PDT 6:38 PM PDT
Civil Twilight 6:21 AM PDT 7:08 PM PDT
Nautical Twilight 5:47 AM PDT 7:42 PM PDT
Astronomical Twilight 5:12 AM PDT 8:17 PM PDT
Moon 1:23 AM PDT (9/29) 3:49 PM PDT (9/29)
Length of Visible Light 12h 46m
Length of Day
11h 47m
Waning Crescent, 26% of the Moon is Illuminated
Sep 29
Waning Crescent
Oct 4
New
Oct 11
First Quarter
Oct 18
Full
Oct 26
Last Quarter

Hourly Weather History & Observations

Time (PDT) Temp. Dew Point Humidity Pressure Visibility Wind Dir Wind Speed Gust Speed Precip Events Conditions
12:23 AM 48.9 °F 46.9 °F 93% 29.64 in 9.0 mi WNW 27.6 mph 35.7 mph 0.00 in Rain Light Rain
12:32 AM 48.9 °F 48.0 °F 97% 29.64 in 10.0 mi West 25.3 mph 34.5 mph 0.00 in Rain Light Rain
12:45 AM 48.9 °F 46.9 °F 93% 29.64 in 10.0 mi West 28.8 mph 39.1 mph 0.01 in Rain Light Rain
12:53 AM 48.9 °F 46.0 °F 90% 29.62 in 10.0 mi West 24.2 mph 38.0 mph 0.01 in Rain Light Rain
1:24 AM 48.9 °F 46.0 °F 90% 29.68 in 10.0 mi SSW 17.3 mph 24.2 mph 0.00 in   Overcast
1:53 AM 50.0 °F 43.0 °F 77% 29.66 in 10.0 mi SSW 11.5 mph - 0.00 in Rain Light Rain
2:53 AM 53.1 °F 42.1 °F 66% 29.63 in 10.0 mi SW 15.0 mph 25.3 mph 0.00 in   Overcast
3:53 AM 53.1 °F 41.0 °F 64% 29.66 in 10.0 mi SW 15.0 mph - 0.00 in   Overcast
4:53 AM 53.1 °F 39.9 °F 61% 29.67 in 10.0 mi SW 10.4 mph - N/A   Clear
5:53 AM 50.0 °F 41.0 °F 71% 29.67 in 10.0 mi South 9.2 mph - N/A   Clear
6:53 AM 51.1 °F 41.0 °F 68% 29.65 in 10.0 mi SSW 10.4 mph - N/A   Clear
7:53 AM 53.1 °F 41.0 °F 64% 29.66 in 10.0 mi SSW 9.2 mph - N/A   Clear
8:53 AM 55.0 °F 41.0 °F 59% 29.67 in 10.0 mi SSW 15.0 mph - N/A   Partly Cloudy
9:53 AM 57.0 °F 41.0 °F 55% 29.67 in 10.0 mi South 5.8 mph - N/A   Clear
10:53 AM 57.9 °F 39.9 °F 51% 29.69 in 10.0 mi SSW 10.4 mph - N/A   Mostly Cloudy
11:53 AM 59.0 °F 39.9 °F 49% 29.68 in 10.0 mi SW 13.8 mph - N/A   Scattered Clouds
12:53 PM 61.0 °F 39.9 °F 46% 29.68 in 10.0 mi South 18.4 mph - N/A   Mostly Cloudy
1:53 PM 59.0 °F 39.9 °F 49% 29.66 in 10.0 mi South 21.9 mph 28.8 mph N/A   Overcast
2:53 PM 61.0 °F 39.9 °F 46% 29.66 in 10.0 mi South 21.9 mph 26.5 mph 0.00 in   Scattered Clouds
3:53 PM 61.0 °F 39.9 °F 46% 29.64 in 10.0 mi South 17.3 mph - N/A   Scattered Clouds
4:53 PM 55.0 °F 45.0 °F 69% 29.65 in 10.0 mi South 17.3 mph - 0.00 in Rain Light Rain
5:53 PM 53.1 °F 46.0 °F 77% 29.62 in 10.0 mi South 9.2 mph - 0.00 in Rain Light Rain
6:53 PM 55.9 °F 44.1 °F 64% 29.59 in 10.0 mi SSW 13.8 mph - 0.00 in   Overcast
7:53 PM 55.0 °F 46.0 °F 72% 29.57 in 10.0 mi South 15.0 mph 26.5 mph 0.00 in Rain Light Rain
8:53 PM 55.9 °F 46.0 °F 69% 29.50 in 10.0 mi South 15.0 mph 21.9 mph 0.00 in Rain Light Rain
9:53 PM 59.0 °F 46.0 °F 62% 29.42 in 10.0 mi SSW 18.4 mph 31.1 mph 0.00 in   Mostly Cloudy
10:53 PM 61.0 °F 46.0 °F 58% 29.35 in 10.0 mi SSW 27.6 mph 41.4 mph N/A   Partly Cloudy
11:53 PM 62.1 °F 46.0 °F 56% 29.37 in 10.0 mi SSW 28.8 mph 36.8 mph N/A   Scattered Clouds